Location: Newark
(49.8969°N, 3.3422°E)
Time: 02:49:37
(UTC+00:00)

SR - All Passes

Search period start: 21 January 2020 00:00
Search period end: 31 January 2020 00:00
Orbit: 574 x 882 km, 66.7° (Epoch: 20 January)

Date Brightness Start Highest point End Pass type
(mag) Time Alt. Az. Time Alt. Az. Time Alt. Az.
21 Jan - 00:48:09 10° WSW 00:53:37 37° NW 00:59:06 10° NNE night (unlit)
21 Jan - 02:33:36 10° NW 02:37:26 17° NNW 02:41:13 10° NNE visible
21 Jan - 04:18:23 10° NNW 04:21:54 16° N 04:25:20 10° NE visible
21 Jan - 06:00:44 10° NNW 06:05:53 31° NE 06:10:43 10° E visible
21 Jan - 07:42:51 10° NW 07:48:31 70° WSW 07:53:42 10° SSE daylight
21 Jan - 09:27:18 10° WNW 09:29:29 12° W 09:31:36 10° SW daylight
21 Jan - 22:16:25 10° S 22:21:41 35° ESE 22:27:01 10° NE night (unlit)
21 Jan - 23:57:50 10° SW 00:03:38 56° NW 00:09:29 10° NNE night (unlit)
22 Jan - 01:42:36 10° WNW 01:47:02 21° NNW 01:51:25 10° NNE visible
22 Jan - 03:28:08 10° NNW 03:31:23 15° N 03:34:36 10° NE visible
22 Jan - 05:11:05 10° NNW 05:15:40 23° NNE 05:20:01 10° E visible
22 Jan - 06:53:06 10° NW 06:58:50 71° NE 07:04:05 10° SE visible
22 Jan - 08:36:04 10° WNW 08:40:22 23° WSW 08:44:25 10° SSW daylight
22 Jan - 21:28:12 10° SSE 21:32:23 21° ESE 21:36:37 10° ENE night (unlit)
22 Jan - 23:07:56 10° SW 23:13:50 87° NW 23:19:49 10° NE night (unlit)
23 Jan - 00:51:44 10° W 00:56:46 28° NNW 01:01:45 10° NNE night (unlit)
23 Jan - 02:37:28 10° NW 02:40:53 15° N 02:44:13 10° NNE visible
23 Jan - 04:21:21 10° NNW 04:25:19 18° NNE 04:29:08 10° ENE visible
23 Jan - 06:03:26 10° NNW 06:08:56 45° NE 06:14:02 10° ESE visible
23 Jan - 07:45:49 10° NW 07:51:03 41° WSW 07:55:54 10° S daylight
23 Jan - 20:41:49 10° ESE 20:43:16 11° E 20:44:44 10° E night (unlit)
23 Jan - 22:18:28 10° SSW 22:24:12 58° ESE 22:30:02 10° NE night (unlit)
24 Jan - 00:01:08 10° WSW 00:06:38 39° NW 00:12:09 10° NNE night (unlit)
24 Jan - 01:46:32 10° WNW 01:50:24 17° NNW 01:54:13 10° NNE visible
24 Jan - 03:31:24 10° NNW 03:34:52 16° N 03:38:14 10° NE visible
24 Jan - 05:13:49 10° NNW 05:18:52 30° NE 05:23:38 10° E visible
24 Jan - 06:55:53 10° NW 07:01:34 73° WSW 07:06:44 10° SSE visible
24 Jan - 08:40:09 10° WNW 08:42:34 13° WSW 08:44:55 10° SW daylight
24 Jan - 21:29:33 10° S 21:34:45 34° ESE 21:40:01 10° NE night (unlit)
24 Jan - 23:10:50 10° SW 23:16:41 58° NW 23:22:32 10° NNE night (unlit)
25 Jan - 00:55:32 10° WNW 01:00:01 21° NNW 01:04:28 10° NNE night (unlit)
25 Jan - 02:41:07 10° NNW 02:44:21 15° N 02:47:32 10° NE visible
25 Jan - 04:24:09 10° NNW 04:28:39 22° NNE 04:32:55 10° ENE visible
25 Jan - 06:06:09 10° NNW 06:11:51 68° NE 06:17:04 10° SE visible
25 Jan - 07:49:03 10° NW 07:53:26 24° WSW 07:57:33 10° SSW daylight
25 Jan - 20:41:25 10° SSE 20:45:28 20° ESE 20:49:35 10° ENE night (unlit)
25 Jan - 22:20:58 10° SW 22:26:53 89° SE 22:32:51 10° NE night (unlit)
26 Jan - 00:04:41 10° W 00:09:46 28° NNW 00:14:48 10° NNE night (unlit)
26 Jan - 01:50:26 10° NW 01:53:51 15° N 01:57:12 10° NNE visible
26 Jan - 03:34:24 10° NNW 03:38:17 18° NNE 03:42:02 10° ENE visible
26 Jan - 05:16:29 10° NNW 05:21:57 43° NE 05:26:59 10° ESE visible
26 Jan - 06:58:50 10° NW 07:04:07 43° WSW 07:08:58 10° S daylight
26 Jan - 19:55:41 10° ESE 19:56:22 10° E 19:57:04 10° E night (unlit)
26 Jan - 21:31:33 10° SSW 21:37:16 55° ESE 21:43:02 10° NE night (unlit)
26 Jan - 23:14:06 10° WSW 23:19:39 40° NW 23:25:12 10° NNE night (unlit)
27 Jan - 00:59:28 10° WNW 01:03:22 18° NNW 01:07:14 10° NNE night (unlit)
27 Jan - 02:44:26 10° NNW 02:47:50 15° N 02:51:08 10° NE visible
27 Jan - 04:26:53 10° NNW 04:31:52 29° NNE 04:36:33 10° E visible
27 Jan - 06:08:56 10° NW 06:14:36 77° WSW 06:19:45 10° SSE visible
27 Jan - 07:53:00 10° WNW 07:55:39 14° WSW 07:58:13 10° SW daylight
27 Jan - 20:42:42 10° S 20:47:49 32° ESE 20:53:01 10° NE night (unlit)
27 Jan - 22:23:51 10° SW 22:29:42 61° NW 22:35:34 10° NNE night (unlit)
28 Jan - 00:08:28 10° WNW 00:13:00 22° NNW 00:17:29 10° NNE night (unlit)
28 Jan - 01:54:06 10° NNW 01:57:19 15° N 02:00:28 10° NNE visible
28 Jan - 03:37:13 10° NNW 03:41:37 22° NNE 03:45:49 10° ENE visible
28 Jan - 05:19:13 10° NNW 05:24:52 65° NE 05:30:03 10° SE visible
28 Jan - 07:02:03 10° NW 07:06:30 26° WSW 07:10:40 10° SSW daylight
28 Jan - 19:54:38 10° SSE 19:58:33 19° ESE 20:02:30 10° ENE night (unlit)
28 Jan - 21:34:01 10° SSW 21:39:55 86° SE 21:45:53 10° NE night (unlit)
28 Jan - 23:17:38 10° W 23:22:45 29° NNW 23:27:50 10° NNE night (unlit)
29 Jan - 01:03:22 10° NW 01:06:49 16° N 01:10:10 10° NNE night (unlit)
29 Jan - 02:47:27 10° NNW 02:51:15 18° NNE 02:54:55 10° ENE visible
29 Jan - 04:29:33 10° NNW 04:34:57 41° NE 04:39:56 10° ESE visible
29 Jan - 06:11:52 10° NW 06:17:10 46° WSW 06:22:02 10° S visible
29 Jan - 20:44:38 10° SSW 20:50:19 52° ESE 20:56:04 10° NE night (unlit)
29 Jan - 22:27:04 10° WSW 22:32:40 41° NW 22:38:14 10° NNE night (unlit)
30 Jan - 00:12:24 10° WNW 00:16:21 18° NNW 00:20:14 10° NNE night (unlit)
30 Jan - 01:57:27 10° NNW 02:00:47 15° N 02:04:03 10° NE visible
30 Jan - 03:39:56 10° NNW 03:44:51 28° NNE 03:49:28 10° E visible
30 Jan - 05:22:00 10° NW 05:27:38 80° SW 05:32:46 10° SSE visible
30 Jan - 07:05:53 10° WNW 07:08:44 15° WSW 07:11:28 10° SW daylight
30 Jan - 19:55:50 10° S 20:00:54 31° ESE 20:06:00 10° NE night (unlit)
30 Jan - 21:36:52 10° SW 21:42:44 63° NW 21:48:36 10° NNE night (unlit)
30 Jan - 23:21:25 10° WNW 23:25:59 22° NNW 23:30:30 10° NNE night (unlit)
